Flag for U.S.A. Weather past 2 weeks in Louisville, Kentucky, U.S.A.

Now
67 °F

Partly cloudy.


Feels Like: 67 °F
Forecast: 67 / 83 °F
Wind: 6 mph from Southeast

Location: Standiford Field

Current Time: May 29, 2015 at 7:37:10 AM

Latest Report: May 29, 2015 at 6:56 AM


Visibility: 10 mi

Pressure: 30.11 "Hg

Humidity: 90%

Dew point: 64 °F

Location of LouisvilleLocation

Historic Weather in Louisville — Graph

°F

Louisville temperature yesterday

Maximum temperature yesterday: 83 °F (at 4:56 PM)
Minimum temperature yesterday: 67 °F (at 1:56 AM)
Average temperature yesterday: 73 °F

Past Weeks' High & Low Weather Summary

 TemperatureHumidityPressure
High87 °F (May 15, 4:56 PM)93% (May 16, 11:56 PM)30.38 "Hg (May 16, 11:56 PM)
Low48 °F (May 22, 6:56 AM)27% (May 23, 3:56 PM)29.95 "Hg (May 20, 7:56 PM)
Average70 °F68%30.13 "Hg
* Reported May 14 5:56 AM — May 29 5:56 AM, Louisville, Weather by CustomWeather, © 2015

Note: Actual official high and low records may vary slightly from our data, if they occured in-between our weather recording intervals... More about our weather records

Advertising

Louisville weather history for previous 24 hours

 ConditionsComfort  
Time TempWeatherWind HumidityBarometerVisibility
5:56 AM
Fri, May 29
67 °FPartly cloudy.7 mph87%30.09 "Hg10 mi
4:56 AM68 °FPassing clouds.7 mph84%30.09 "Hg10 mi
3:56 AM68 °FPassing clouds.5 mph84%30.09 "Hg10 mi
2:56 AM69 °FPassing clouds.No wind81%30.09 "Hg10 mi
1:56 AM69 °FPassing clouds.5 mph84%30.09 "Hg10 mi
12:56 AM71 °FPassing clouds.6 mph78%30.11 "Hg10 mi
11:56 PM
Thu, May 28
72 °FPassing clouds.5 mph78%30.14 "Hg10 mi
10:56 PM73 °FPassing clouds.8 mph79%30.14 "Hg10 mi
9:56 PM74 °FPassing clouds.7 mph82%30.13 "Hg10 mi
8:56 PM76 °FScattered clouds.8 mph74%30.11 "Hg10 mi
7:56 PM78 °FPartly sunny.6 mph69%30.11 "Hg10 mi
6:56 PM77 °FBroken clouds.12 mph74%30.11 "Hg10 mi
5:56 PM77 °FLight rain. Broken clouds.13 mph74%30.13 "Hg10 mi
4:56 PM83 °FBroken clouds.5 mph55%30.13 "Hg10 mi
3:56 PM81 °FBroken clouds.N/A58%30.16 "Hg10 mi
2:56 PM79 °FMostly cloudy.7 mph67%30.17 "Hg10 mi
1:56 PM77 °FOvercast.5 mph69%30.19 "Hg9 mi
12:56 PM74 °FOvercast.13 mph76%30.20 "Hg6 mi
11:56 AM74 °FOvercast.6 mph79%30.21 "Hg6 mi
10:56 AM72 °FLow clouds.No wind81%30.20 "Hg5 mi
9:56 AM70 °FFog.No wind87%30.20 "Hg5 mi
8:56 AM69 °FFog.3 mph90%30.19 "Hg5 mi
7:56 AM68 °FMostly cloudy.6 mph90%30.18 "Hg7 mi
Weather by CustomWeather, © 2015

See weather overviewHow to use our weather pages